ラヴジョイ彗星

C/2017 E4 ( Lovejoy )

English version
Home page
Updated on July 10, 2017

---------------------------------------------------------------------

・ プロフィール

発見日 2017年3月9日
発見光度 15.0等
発見者 Terry James Lovejoy (Birkdale, Queensland, Australia)

・ 写真集

・ 軌道要素

Epoch 2017 May 7.0 TT = JDT 2457880.5
T 2017 Apr. 23.27227 TT                                 MPCW
q   0.4939432            (2000.0)            P               Q
z  -0.0029718      Peri.   87.14263     -0.01459179     +0.72911172
 +/-0.0001223      Node   223.20301     -0.44963558     +0.60643453
e   1.0014679      Incl.   88.17746     +0.89309290     +0.31722745
From 627 observations 2017 Mar. 9-Apr. 24, mean residual 1".5.

・ 星図

・ 光度変化

        m1 = 11.5 + 5 logΔ + 23.5 log r          [   ,-20]  (              〜2017年 4月 3日)
        m1 = 12.5 + 5 logΔ + 20.0 log r(t + 30)  [-20,   ]  (2017年 4月 3日〜              )

        ※ 灰色の曲線は、11.5 + 5 logΔ + 23.5 log r の光度曲線です。

---------------------------------------------------------------------

軌道要素はM.P.E.C. 2017-L52に掲載されたものです。
星図はステラナビゲータ Ver.10 (アストロアーツ) で作成したものです。
光度グラフはComet for Windowsで作成したものです。

---------------------------------------------------------------------

Copyright(C) Seiichi Yoshida (comet@aerith.net). All rights reserved.